Temp
52 52 52 53 52 52 48 40 35 46 49 38 38 39 45 46 47 53 50 51 49 47 49 47 48 49 58 60 60 52 59 52 47 54 63 65 64 60 59 47 47 45 45 47
51 52 52 52 52 51 45 38 37 47 48 32 32 38 41 44 44 45 45 45 47 48 47 43 48 51 58 60 58 55 57 50 42 48 55 58 56 57 60 57 54 47 42 48
51 51 52 52 52 52 45 38 32 39 42 40 37 36 37 38 45 45 48 46 48 45 43 48 45 47 54 55 56 53 54 51 47 41 49 55 52 55 57 56 48 49 50 54
51 51 51 52 52 52 45 38 34 38 32 35 37 38 35 34 37 43 45 43 43 42 38 42 42 47 49 53 54 55 54 44 48 50 54 56 53 54 57 55 56 50 55 57
50 51 51 51 52 52 43 36 35 38 36 38 35 36 36 35 36 38 38 38 41 41 38 41 38 41 43 42 50 49 51 42 47 42 51 52 50 55 56 57 58 58 58 56
50 51 51 51 51 51 42 42 42 40 36 35 34 35 36 36 40 41 44 42 40 38 41 46 46 47 45 44 41 41 41 40 39 35 47 48 40 49 54 58 60 60 53 61
49 50 51 51 51 51 44 44 42 36 31 34 35 37 38 37 38 36 41 43 39 45 51 49 47 46 45 45 44 45 40 40 38 34 39 31 50 61 60 58 59 63 62 65
49 50 51 51 51 51 44 43 42 37 31 36 36 36 37 40 41 39 39 42 46 50 45 36 34 36 38 42 44 44 45 41 34 31 33 42 49 55 56 55 56 65 62 64
49 50 50 51 51 51 46 44 44 42 34 33 40 37 38 34 34 35 38 45 48 45 38 33 26 25 34 34 41 49 45 45 37 35 29 30 49 60 64 61 46 64 65 63
49 50 50 50 51 51 47 43 46 42 33 39 41 35 35 40 38 34 38 40 41 43 34 30 28 28 38 30 33 36 39 39 32 33 30 38 51 57 63 43 49 64 65 65
49 49 50 50 50 50 47 44 45 42 36 38 42 43 38 38 38 33 39 36 38 37 32 32 32 32 37 36 39 37 37 35 35 36 31 29 58 56 47 58 64 65 62 62
49 49 49 49 50 50 47 42 45 46 39 37 44 45 46 45 45 40 40 38 40 40 35 36 36 33 34 34 29 46 35 42 40 43 43 57 60 59 63 65 63 60 61 63
48 49 49 49 49 49 47 44 44 43 37 36 37 37 45 48 46 48 35 39 43 40 44 37 35 29 37 29 35 39 44 51 43 44 50 53 57 63 66 67 65 67 65 58
48 48 48 48 49 49 48 42 44 42 39 30 34 46 42 49 47 45 45 42 45 45 42 35 33 31 41 35 39 38 42 43 43 46 52 56 59 61 64 62 65 62 58 58
46 48 48 48 49 49 46 42 44 45 37 29 32 41 45 47 46 44 45 42 40 37 34 33 31 37 36 37 38 35 45 42 39 42 55 55 56 63 67 65 61 60 57 55
47 47 48 48 48 48 41 34 42 45 44 33 27 39 40 44 45 43 42 42 40 38 36 35 37 43 38 33 33 45 50 51 52 50 57 56 62 62 61 58 55 54 59 60
47 47 47 48 47 42 38 33 41 45 44 33 29 31 39 44 44 43 41 43 40 38 36 35 36 39 39 34 31 44 51 54 55 59 58 54 56 57 56 56 57 56 62 60
47 47 47 47 47 45 39 43 46 45 39 36 28 31 33 43 39 38 43 39 40 38 36 38 36 38 37 31 41 48 50 52 56 57 62 61 58 57 54 53 59 56 56 55
47 47 47 42 40 36 39 47 48 44 39 31 30 29 28 41 39 39 39 40 33 40 33 36 38 36 33 39 44 48 51 51 54 58 59 59 55 53 50 50 56 55 55 54
46 42 37 32 35 45 46 39 36 36 36 35 30 37 30 39 38 35 34 36 33 31 35 41 36 36 46 51 53 54 54 57 57 54 51 53 52 52 52 52 58 55 53 52
38 33 32 38 45 40 35 31 30 31 29 33 35 36 32 40 32 33 37 33 34 29 34 34 33 33 43 52 52 53 54 58 58 59 57 58 55 52 52 51 51 52 50 49
39 38 40 39 35 32 29 28 29 30 29 33 33 36 37 37 40 35 35 32 33 29 38 32 32 41 47 49 51 52 51 52 56 59 55 54 55 52 51 49 49 49 46 45
39 34 32 31 30 24 23 16 23 26 32 35 36 33 36 38 39 35 33 30 31 36 32 33 39 45 45 46 50 48 50 50 51 51 49 49 49 50 47 43 44 46 45 44
30 28 25 25 22 24 27 28 31 35 35 36 35 33 33 35 32 33 30 34 35 31 30 33 40 44 45 48 49 49 48 50 49 48 49 48 46 43 44 43 40 39 37 35
28 30 23 24 30 30 32 34 34 37 38 35 34 33 34 33 31 33 32 31 30 33 33 37 42 44 43 46 47 48 48 49 48 47 44 40 40 40 39 39 41 39 35 35
31 30 27 29 29 29 30 32 33 39 36 37 35 31 31 31 33 32 30 30 31 36 38 39 42 45 45 44 43 43 44 46 46 46 43 41 39 40 39 41 40 36 37 35
30 27 30 31 31 31 32 35 36 39 35 31 31 27 31 32 31 31 35 32 36 36 37 40 42 45 45 45 43 44 44 44 44 44 44 42 41 41 41 37 36 37 37 34
MSLP
1023.93 1023.79 1023.86 1023.93 1024.05 1024.36 1024.63 1024.95 1024.79 1023.56 1023.26 1023.66 1023.23 1021.82 1020.77 1020.23 1019.31 1018.58 1018.45 1018.13 1017.93 1017.70 1017.40 1016.87 1016.24 1015.18 1014.62 1014.62 1015.37 1015.49 1015.25 1014.67 1013.53 1012.47 1011.58 1011.26 1011.26 1011.41 1012.11 1012.40 1012.05 1011.78 1011.08 1007.52
1023.62 1023.56 1023.55 1023.66 1023.86 1024.26 1024.74 1024.98 1024.63 1023.71 1023.46 1023.52 1023.36 1022.62 1021.79 1021.24 1020.65 1020.07 1019.88 1019.40 1019.31 1019.19 1018.70 1018.21 1016.87 1016.02 1015.76 1015.68 1015.87 1016.14 1016.34 1015.41 1014.49 1012.48 1012.00 1011.64 1011.08 1010.97 1010.89 1011.31 1011.49 1010.39 1010.71 1007.14
1023.22 1023.22 1023.13 1023.22 1023.46 1023.96 1024.65 1025.08 1024.85 1024.26 1023.73 1023.77 1023.34 1023.03 1022.40 1021.90 1021.40 1021.02 1020.76 1020.47 1020.38 1020.38 1019.83 1019.19 1017.59 1017.20 1016.79 1016.70 1016.94 1016.83 1017.45 1016.00 1015.06 1013.18 1011.55 1011.67 1011.28 1010.89 1010.69 1010.64 1010.21 1009.08 1007.99 1006.57
1022.81 1022.65 1022.69 1022.76 1023.11 1023.48 1024.57 1024.69 1024.45 1024.07 1023.90 1023.66 1023.64 1023.37 1023.00 1022.47 1022.04 1021.83 1021.54 1020.87 1020.98 1021.00 1020.60 1019.83 1018.74 1018.37 1017.89 1017.91 1017.80 1017.17 1017.18 1016.01 1014.91 1013.60 1012.22 1011.64 1011.26 1010.45 1009.82 1009.29 1008.31 1008.43 1005.71 1006.18
1022.24 1022.02 1022.15 1022.18 1022.63 1023.00 1024.03 1023.92 1024.20 1024.19 1023.88 1023.52 1023.75 1023.48 1022.68 1022.63 1023.22 1022.94 1022.22 1022.05 1021.84 1021.66 1020.99 1020.59 1019.98 1019.86 1019.66 1018.85 1018.15 1017.86 1017.76 1015.90 1015.50 1013.77 1012.36 1011.79 1011.12 1009.04 1007.97 1007.30 1006.86 1006.81 1006.06 1004.44
1021.46 1021.30 1021.42 1021.54 1021.91 1022.42 1022.69 1023.02 1023.48 1023.41 1023.47 1023.41 1023.28 1022.68 1022.68 1022.91 1023.05 1022.73 1022.39 1022.33 1022.22 1021.74 1021.24 1021.20 1021.01 1020.69 1020.20 1019.47 1018.79 1018.97 1018.83 1017.50 1016.42 1014.50 1013.00 1012.21 1010.25 1007.21 1006.62 1006.13 1005.90 1005.52 1004.24 1001.94
1020.70 1020.63 1020.67 1020.72 1021.01 1021.54 1022.10 1022.38 1022.95 1023.48 1023.19 1022.94 1022.69 1022.57 1022.74 1022.93 1023.03 1022.82 1022.69 1022.51 1022.30 1021.60 1021.50 1021.38 1020.82 1020.03 1019.08 1018.39 1017.24 1018.20 1017.16 1017.55 1017.39 1014.91 1013.99 1011.16 1006.93 1007.03 1006.22 1004.87 1004.30 1003.73 1002.71 1002.74
1019.63 1019.69 1019.77 1019.94 1020.27 1020.75 1021.74 1022.17 1022.50 1022.97 1022.82 1022.36 1022.36 1022.55 1022.47 1022.47 1022.35 1022.11 1022.26 1021.78 1021.75 1021.81 1022.10 1021.45 1020.07 1018.56 1017.39 1015.21 1014.66 1015.11 1015.86 1016.47 1016.22 1015.53 1012.66 1009.66 1007.63 1005.20 1004.74 1004.43 1002.86 1002.33 1002.69 1002.29
1018.55 1018.69 1018.88 1019.13 1019.53 1020.22 1021.44 1021.76 1022.01 1022.29 1022.53 1021.66 1022.02 1021.91 1022.06 1021.95 1021.99 1021.70 1021.23 1021.36 1020.93 1021.61 1021.59 1021.28 1019.89 1018.38 1016.76 1015.21 1013.32 1012.48 1013.84 1014.23 1014.73 1013.49 1011.67 1007.67 1005.46 1004.62 1004.38 1004.51 1001.37 1001.38 1001.92 1001.20
1017.37 1017.65 1018.03 1018.48 1018.96 1019.55 1020.69 1021.24 1021.52 1022.14 1021.83 1021.43 1021.75 1021.35 1021.53 1021.73 1021.59 1021.19 1021.00 1021.01 1020.55 1020.58 1020.33 1019.78 1019.03 1017.58 1016.67 1015.16 1013.62 1012.02 1013.16 1012.86 1012.81 1011.55 1010.05 1006.18 1005.61 1004.63 1003.15 1003.25 998.95 1000.43 1000.38 1000.41
1016.52 1016.97 1017.43 1017.92 1018.39 1018.94 1019.97 1020.58 1021.02 1021.52 1021.27 1021.06 1021.17 1021.12 1021.20 1021.16 1021.05 1020.90 1020.72 1020.96 1020.05 1019.95 1019.66 1018.95 1017.74 1016.28 1014.95 1013.60 1011.99 1010.72 1011.04 1011.07 1009.26 1008.55 1007.29 1004.22 1003.62 1004.20 1003.43 1000.49 1000.58 1000.15 1000.39 1000.59
1015.82 1016.40 1017.00 1017.54 1018.05 1018.64 1019.59 1020.40 1020.63 1020.97 1021.17 1020.75 1020.60 1020.48 1020.18 1020.16 1020.21 1020.54 1020.52 1019.80 1019.41 1018.87 1018.39 1017.69 1016.92 1015.62 1014.53 1013.09 1011.03 1010.00 1008.65 1008.12 1006.66 1005.91 1002.77 1001.77 1001.36 1000.54 1000.09 999.84 999.53 999.67 999.94 1000.31
1015.49 1016.12 1016.74 1017.30 1017.83 1018.43 1019.15 1019.81 1020.26 1020.88 1021.04 1020.49 1020.18 1018.85 1018.43 1019.46 1019.31 1019.27 1019.79 1018.34 1018.55 1018.10 1018.24 1018.05 1017.20 1015.91 1014.77 1012.47 1009.96 1008.34 1006.93 1006.66 1005.32 1004.61 1001.91 1000.88 1000.07 999.62 998.79 998.57 998.42 998.57 999.00 999.95
1015.28 1015.92 1016.45 1017.07 1017.62 1018.14 1018.77 1019.60 1019.93 1020.43 1020.49 1020.02 1017.68 1017.22 1017.31 1017.00 1017.41 1017.68 1017.53 1016.85 1017.33 1017.44 1017.81 1016.88 1015.46 1014.45 1013.13 1011.22 1009.73 1008.56 1006.80 1006.28 1004.62 1001.42 1000.14 999.91 998.11 997.92 997.53 997.36 997.50 998.00 998.79 998.84
1015.35 1015.83 1016.22 1016.80 1017.36 1017.91 1018.51 1019.15 1019.25 1019.46 1020.03 1018.97 1017.40 1016.63 1014.74 1015.65 1015.85 1015.64 1015.64 1016.21 1015.93 1016.16 1015.89 1014.71 1013.37 1012.88 1012.69 1010.26 1009.58 1005.71 1005.17 1003.81 1003.32 999.93 998.62 997.77 996.13 996.82 996.38 996.85 997.29 997.41 998.16 999.07
1014.90 1015.35 1015.84 1016.42 1016.95 1017.61 1018.68 1018.99 1018.06 1018.24 1018.96 1019.17 1017.32 1014.85 1013.02 1013.41 1013.89 1013.60 1013.58 1013.66 1013.87 1014.50 1013.26 1012.24 1011.47 1010.69 1010.54 1008.10 1005.09 1001.24 1001.73 1001.41 1000.20 997.90 997.09 996.98 995.80 996.20 996.42 997.02 997.56 997.86 998.16 998.78
1014.48 1014.99 1015.48 1015.96 1016.43 1017.20 1017.36 1017.41 1016.77 1017.07 1018.25 1018.31 1016.58 1014.16 1012.05 1011.56 1011.53 1011.52 1011.64 1011.62 1011.99 1011.54 1010.60 1009.50 1008.69 1008.41 1007.98 1005.80 1001.82 998.63 999.72 998.90 997.60 996.77 996.92 996.38 995.92 995.91 996.36 996.93 997.68 998.56 999.38 999.03
1014.26 1014.71 1015.15 1015.57 1016.00 1016.69 1016.89 1016.34 1016.39 1017.18 1017.49 1017.00 1015.84 1013.38 1012.15 1010.77 1010.45 1010.50 1009.93 1010.20 1009.93 1008.69 1007.37 1006.22 1005.80 1005.52 1005.35 1001.73 998.34 997.70 997.95 997.63 996.42 995.68 994.96 994.80 995.25 995.92 996.43 996.74 997.82 999.08 998.98 999.38
1013.99 1014.42 1014.93 1015.62 1015.96 1015.98 1015.28 1015.34 1015.46 1016.08 1016.95 1015.84 1014.61 1013.09 1011.15 1010.22 1009.78 1009.58 1009.14 1008.31 1007.50 1006.15 1004.61 1003.00 1002.89 1001.18 999.15 995.64 996.53 995.84 994.92 994.81 993.92 994.16 993.78 994.21 994.72 995.52 996.24 996.48 998.04 998.72 999.02 999.49
1013.83 1014.52 1015.05 1015.18 1014.77 1014.33 1014.70 1015.20 1015.45 1015.59 1015.00 1014.66 1012.88 1011.85 1010.23 1010.19 1009.57 1008.78 1008.51 1007.19 1006.32 1004.10 1001.69 1000.35 999.05 997.38 995.56 994.71 993.78 993.05 992.86 992.36 992.59 992.89 993.20 993.94 994.44 995.14 995.95 996.86 997.87 998.53 998.72 999.93
1013.97 1014.42 1014.59 1014.15 1013.99 1014.25 1014.56 1014.50 1014.23 1013.68 1013.12 1011.92 1010.22 1009.78 1009.55 1008.86 1008.43 1007.67 1007.18 1005.94 1004.45 1002.43 999.43 998.31 996.62 994.63 993.33 992.07 991.91 991.99 991.55 991.01 991.55 991.80 991.73 992.48 993.52 995.01 995.78 996.99 998.49 998.81 999.78 1001.05
1013.67 1014.01 1014.02 1014.07 1014.15 1014.14 1013.82 1013.06 1012.55 1011.92 1010.73 1009.50 1008.95 1008.30 1007.85 1007.00 1006.40 1006.12 1005.50 1004.43 1002.86 1000.01 998.08 997.25 994.84 992.08 991.20 990.92 991.04 991.25 991.09 991.37 991.37 991.61 992.32 993.21 994.15 995.57 997.01 998.11 999.41 999.74 1000.84 1002.04
1013.80 1013.95 1013.71 1013.28 1013.49 1013.33 1012.72 1012.09 1011.12 1010.16 1009.31 1008.78 1008.22 1007.82 1007.32 1005.89 1005.00 1004.40 1003.89 1002.83 1000.14 998.63 997.23 995.35 993.13 991.08 990.74 990.77 990.75 991.15 991.28 992.05 992.18 992.59 993.22 994.15 996.00 996.11 997.31 999.53 1000.67 1001.40 1002.59 1003.93
1013.78 1013.36 1012.52 1012.33 1012.26 1011.67 1010.72 1010.37 1009.80 1009.21 1008.92 1008.51 1008.02 1007.39 1006.96 1005.39 1004.59 1002.88 1002.33 1000.32 999.05 997.57 996.11 994.35 992.78 991.51 990.78 990.63 990.64 991.40 992.19 992.63 992.86 993.15 994.31 995.14 996.28 997.74 998.72 999.95 1001.31 1002.72 1004.26 1005.62
1012.94 1012.30 1011.43 1011.19 1010.36 1009.90 1009.50 1009.51 1009.26 1008.46 1008.38 1008.16 1007.51 1006.79 1005.66 1004.02 1003.08 1001.52 1000.73 999.45 998.06 996.61 994.65 993.69 992.87 992.00 991.89 991.39 991.68 992.23 992.75 993.20 993.68 994.52 995.42 996.71 997.29 998.20 999.90 1001.12 1002.50 1003.94 1005.41 1006.44
1011.80 1011.36 1010.65 1010.42 1010.27 1009.68 1009.43 1008.91 1008.62 1008.13 1008.01 1007.40 1007.15 1006.08 1004.16 1002.30 1001.12 1000.44 999.48 998.51 996.93 995.07 994.31 993.77 993.14 992.54 992.56 992.21 992.49 993.16 993.64 994.07 994.61 995.53 996.28 997.46 998.53 999.80 1001.14 1002.50 1003.56 1004.67 1005.71 1006.63
1010.76 1010.39 1009.96 1009.74 1009.57 1009.41 1009.09 1008.47 1007.95 1007.68 1007.69 1007.11 1006.92 1005.92 1003.13 1001.95 1000.15 999.27 998.15 997.08 996.12 995.25 994.77 994.09 993.44 993.06 993.24 993.33 993.27 993.93 994.62 995.31 995.86 996.77 997.81 998.81 999.86 1000.73 1001.93 1003.22 1004.69 1005.73 1006.51 1007.09
Wind_Speed
14 11 9 9 8 3 5 1 2 3 2 2 2 10 5 7 7 5 4 4 2 1 1 2 3 5 3 5 7 9 4 3 5 15 9 7 11 12 10 7 7 6 5 15
15 14 11 10 10 12 3 1 2 2 1 4 3 4 6 3 2 3 5 4 5 8 3 5 10 11 1 9 9 3 11 4 9 13 5 2 8 7 12 8 4 18 11 12
17 16 14 12 12 15 3 2 2 2 1 1 3 4 5 5 4 2 7 10 9 7 5 6 9 7 5 13 16 19 6 10 17 19 17 5 8 7 11 12 12 14 19 26
20 17 16 15 15 16 3 3 4 3 5 7 5 1 1 1 6 4 2 3 9 9 8 14 20 19 18 13 15 14 6 16 20 23 28 23 17 21 21 21 23 20 25 25
20 19 17 16 16 17 5 5 3 1 1 6 9 9 8 11 10 3 5 6 6 7 10 11 19 16 13 11 13 16 9 14 17 27 29 25 25 31 31 29 28 21 23 27
22 20 18 18 18 17 4 2 0 2 4 5 5 7 10 5 8 7 14 9 9 12 17 15 14 14 15 18 19 16 12 7 8 21 22 18 19 27 26 27 22 22 23 27
24 21 19 18 19 21 2 2 3 2 4 8 10 8 15 16 15 17 12 12 14 5 10 15 15 17 21 22 22 17 19 19 11 15 14 23 20 15 19 18 20 22 23 21
24 21 19 18 18 23 4 2 3 4 5 8 12 13 16 13 12 16 16 17 19 12 11 11 12 8 11 18 28 24 22 16 13 13 18 21 21 19 15 17 27 23 21 20
24 21 19 17 18 21 8 3 2 2 3 8 9 8 10 10 9 13 16 13 17 8 6 6 8 8 7 8 10 12 18 20 15 16 19 31 23 25 20 17 26 20 19 27
21 20 18 16 17 19 9 3 7 4 6 5 6 8 9 7 7 10 8 5 11 12 7 10 11 16 13 14 17 16 10 12 20 21 23 22 16 17 4 16 16 8 12 17
21 19 17 15 14 16 10 2 6 8 4 7 7 10 15 9 7 11 1 4 4 5 9 6 9 11 14 20 28 31 21 13 18 18 24 33 18 25 36 16 16 8 6 8
18 16 15 14 13 12 11 3 4 5 6 2 1 9 13 16 18 11 8 12 10 3 6 5 3 4 7 14 16 16 23 23 19 21 19 11 13 29 30 24 23 10 7 10
13 14 15 14 13 13 11 3 3 3 4 7 10 16 20 15 22 17 12 13 14 21 12 9 9 15 11 16 15 16 14 21 23 28 31 32 30 25 27 29 28 23 11 7
10 14 14 13 13 13 11 6 4 4 1 5 9 12 14 14 18 22 24 26 19 16 9 9 9 12 9 17 20 20 12 9 23 30 29 24 23 31 22 14 18 11 8 10
14 13 13 13 13 13 5 3 5 8 7 4 5 10 26 15 12 20 22 22 22 13 14 11 15 13 13 16 17 23 18 28 19 21 17 21 28 17 22 21 14 9 9 8
14 14 12 13 12 9 3 2 7 12 10 4 7 6 22 14 18 21 26 20 17 14 10 11 14 24 10 10 19 31 29 27 31 30 27 25 22 11 11 6 2 4 9 13
11 11 11 12 13 5 5 6 2 10 9 4 6 5 6 5 8 10 12 17 12 13 16 19 21 17 11 14 29 29 27 23 23 27 25 18 11 10 7 7 10 19 13 12
9 10 11 12 13 9 7 9 13 2 3 3 5 7 6 7 7 5 5 2 6 8 10 8 16 10 14 21 30 24 27 31 23 24 25 24 11 8 9 7 10 16 14 14
9 9 7 1 4 4 4 13 16 4 5 4 5 6 8 3 3 3 4 6 8 8 9 13 10 10 12 19 25 26 26 26 30 20 18 15 11 13 12 12 14 16 15 15
6 4 3 3 5 6 4 2 3 6 6 6 8 7 13 6 8 5 3 4 5 6 7 5 8 13 18 16 17 21 24 28 26 22 17 14 10 12 16 18 18 17 14 14
2 3 4 3 2 2 3 5 5 5 6 6 7 12 13 5 9 6 5 4 5 7 6 6 5 6 18 27 23 16 13 14 16 17 19 19 15 16 14 12 10 15 17 13
4 2 2 1 2 3 5 3 4 6 7 4 4 5 8 5 6 6 5 5 5 10 3 4 5 6 6 9 16 11 6 4 12 13 13 13 15 15 12 11 13 14 16 17
2 1 4 5 4 7 7 6 5 4 3 2 2 7 3 5 6 5 4 7 9 2 4 4 5 6 2 4 8 8 7 7 13 17 20 22 18 20 23 17 13 17 17 14
3 5 7 6 4 6 6 5 3 2 3 6 6 3 6 1 5 4 5 7 4 4 4 5 3 8 2 6 9 13 11 13 17 20 20 21 21 16 16 17 15 15 13 8
4 4 5 7 5 3 3 3 3 4 2 4 5 6 6 5 7 5 5 4 5 5 5 3 3 5 5 6 8 11 10 13 16 17 15 14 15 16 15 15 15 14 11 9
3 4 3 2 3 3 2 3 4 3 3 3 3 5 8 7 4 4 7 3 7 5 2 3 5 0 2 2 7 9 9 10 11 11 14 14 15 17 16 14 14 12 12 12
5 5 2 2 2 5 3 3 4 3 3 2 2 5 4 8 4 4 5 5 4 3 4 3 6 1 3 3 7 12 13 12 13 14 14 14 15 17 17 17 9 10 8 9
Wind_Direction
293 269 251 236 234 212 60 80 265 305 315 108 203 228 261 23 4 23 10 349 347 285 0 296 278 242 167 68 35 342 289 250 256 241 225 221 226 239 232 228 228 234 277 268
293 268 243 226 217 161 132 200 271 339 329 188 217 265 288 294 348 12 22 327 20 18 310 274 240 258 36 288 320 324 356 284 310 298 231 146 229 209 228 241 276 256 261 261
292 269 242 222 210 184 114 124 238 322 274 111 160 215 261 268 357 260 250 260 291 307 277 264 278 285 318 346 322 308 333 269 242 256 264 284 261 229 216 216 257 270 243 275
288 271 245 218 210 192 150 169 224 215 190 221 214 166 72 352 258 8 317 289 239 241 263 259 264 277 295 295 297 280 266 260 264 277 279 264 263 271 265 247 250 247 273 270
286 272 240 219 209 188 209 157 173 173 222 151 194 222 236 258 257 278 273 249 306 301 253 252 295 319 306 281 295 296 308 270 280 269 267 271 282 264 258 249 248 253 270 266
280 270 238 218 208 188 198 141 217 143 189 189 185 218 215 228 195 234 236 254 258 252 265 280 281 278 272 266 274 275 274 272 277 269 268 270 271 244 256 258 245 241 246 254
270 259 234 218 210 192 149 176 125 151 223 205 214 209 228 237 245 252 264 283 278 253 318 309 291 275 268 257 252 235 248 247 268 272 290 249 252 240 259 252 243 235 252 266
260 247 225 215 212 194 175 180 162 165 234 224 230 242 249 261 264 262 265 263 263 281 282 289 290 270 272 250 238 225 219 231 244 254 252 279 275 236 238 235 255 246 247 258
248 234 217 213 211 201 183 195 153 165 235 224 221 229 241 259 264 274 265 273 259 257 243 218 248 258 288 283 292 213 215 223 211 236 246 249 259 251 237 269 265 260 245 251
235 221 212 210 211 204 179 196 179 213 252 239 229 225 240 237 237 258 284 272 273 187 218 244 248 252 258 254 269 271 255 218 218 235 242 254 249 289 194 203 251 202 239 248
216 208 204 202 206 199 174 166 183 194 236 232 231 238 240 252 247 251 184 338 232 235 244 255 247 246 245 247 247 256 253 239 230 232 237 247 220 224 235 265 268 260 258 211
203 196 194 198 197 196 164 196 169 203 233 259 312 253 249 237 242 259 235 238 242 308 254 241 294 283 305 291 285 274 252 233 243 224 233 243 205 225 230 236 243 226 227 236
185 184 185 189 194 192 176 165 150 167 265 279 246 247 243 230 232 230 246 250 238 240 244 265 252 254 249 261 265 289 264 263 247 253 252 253 258 254 237 233 235 231 217 186
187 193 190 192 194 195 182 193 173 201 300 258 267 231 234 226 220 224 223 241 249 247 234 237 235 245 233 256 267 262 253 305 274 251 251 263 252 235 233 211 215 204 196 174
190 220 197 193 197 202 191 166 197 200 209 259 263 311 272 245 228 231 226 225 235 229 232 232 243 248 251 252 264 256 243 255 253 261 257 249 247 250 233 227 213 187 152 147
203 198 195 195 192 184 110 266 212 200 198 245 266 258 264 259 234 235 233 225 230 227 232 236 240 243 226 251 250 254 253 242 242 249 249 254 253 235 186 148 172 310 189 181
188 191 197 200 198 164 180 192 204 163 178 224 243 244 246 252 251 236 236 228 222 224 233 228 238 234 216 242 251 251 249 272 240 243 239 243 228 208 173 144 175 226 217 168
190 197 201 204 206 204 237 255 273 205 250 203 268 272 288 180 249 254 185 238 229 225 228 216 222 234 224 244 247 254 242 244 254 257 237 237 198 171 157 136 190 184 163 143
193 195 197 123 186 207 217 203 219 197 199 244 222 253 277 174 238 245 245 202 254 222 229 225 216 214 224 236 231 235 241 227 233 241 216 212 181 167 158 156 191 175 155 141
165 110 135 211 212 189 122 51 201 202 202 224 249 246 246 294 280 268 262 200 229 255 233 208 226 235 242 238 228 226 231 232 217 229 206 196 167 164 171 183 182 172 144 134
104 155 211 234 174 157 166 208 209 189 219 217 236 233 247 230 233 242 211 247 239 248 226 214 235 231 223 222 215 221 233 223 205 199 187 193 175 185 162 138 134 141 125 119
133 193 227 154 151 210 214 226 221 213 225 202 221 229 213 234 206 196 210 241 237 244 159 233 253 247 251 229 206 196 150 165 187 176 141 134 135 124 110 117 122 103 109 108
57 43 233 172 156 212 218 212 242 242 215 267 320 311 300 257 215 210 218 238 234 276 240 246 247 263 280 226 148 122 108 113 117 114 110 107 112 115 110 95 89 99 99 104
175 216 207 195 176 231 201 198 247 265 247 308 307 311 255 267 269 214 238 242 264 261 252 248 277 301 318 142 129 127 141 140 127 117 119 119 111 109 110 109 110 107 109 103
201 239 220 209 229 256 188 226 260 253 280 313 309 256 241 212 239 207 252 249 263 243 230 256 314 339 328 123 122 131 128 126 118 119 111 110 111 103 103 113 118 118 121 122
237 231 229 225 249 271 252 227 247 188 242 256 229 263 260 233 228 190 228 227 236 270 275 284 313 294 63 126 99 97 103 122 114 118 115 116 117 124 122 122 124 124 135 133
204 227 224 217 243 260 240 221 229 190 247 193 260 259 292 301 237 230 209 227 256 281 296 315 302 218 134 118 113 124 124 121 118 116 113 113 117 122 124 115 102 105 105 113